OpenBCM V1.13 (Linux)

Packet Radio Mailbox

DB0FHN

[JN59NK Nuernberg]

 Login: GUEST





  
UA9FBV > KEPS     08.10.04 06:11l 151 Lines 3943 Bytes #999 (0) @ AMSAT
BID : ORB04281.O
Read: GUEST
Subj: Orbital Elements  04281.OSCAR
Path: DB0FHN<DB0RGB<OK0PPL<DB0RES<ER3KAZ<UA9FBV
Sent: 041008/0406Z @:UA9FBV.PRM.RUS.AS #:5017 [Perm] GATEWAY $:ORB04281.O
From: UA9FBV@UA9FBV.PRM.RUS.AS
To  : KEPS@AMSAT


HR AMSAT ORBITAL ELEMENTS FOR OSCAR SATELLITES
FROM WA5QGD FORT WORTH,TX October 7, 2004
SEND SUBSCRIBE/UNSUBSCRIBE TO majordomo@amsat.org ONLY
BID: ORB04281.O
TO ALL RADIO AMATEURS BT

Satellite: AO-07
Catalog number: 07530
Epoch time:      04280.52714277
Element set:     330
Inclination:      101.6690 deg
RA of node:       325.4723 deg
Eccentricity:    0.0012102
Arg of perigee:     7.3244 deg
Mean anomaly:     352.8005 deg
Mean motion:   12.53569009 rev/day
Decay rate:       -2.9e-07 rev/day^2
Epoch rev:           36786
Checksum:              268

Satellite: AO-10
Catalog number: 14129
Epoch time:      04279.85138521
Element set:     109
Inclination:       26.6762 deg
RA of node:        68.1668 deg
Eccentricity:    0.6031159
Arg of perigee:   129.8320 deg
Mean anomaly:     301.1780 deg
Mean motion:    2.05870017 rev/day
Decay rate:      -3.36e-06 rev/day^2
Epoch rev:           16029
Checksum:              288

Satellite: UO-11
Catalog number: 14781
Epoch time:      04281.41133130
Element set:     601
Inclination:       98.1865 deg
RA of node:       268.1656 deg
Eccentricity:    0.0010528
Arg of perigee:    92.4086 deg
Mean anomaly:     267.8342 deg
Mean motion:   14.79014359 rev/day
Decay rate:       6.36e-06 rev/day^2
Epoch rev:           10443
Checksum:              289

Satellite: RS-10/11
Catalog number: 18129
Epoch time:      04281.46932056
Element set:     512
Inclination:       82.9212 deg
RA of node:        65.0613 deg
Eccentricity:    0.0012435
Arg of perigee:    15.9372 deg
Mean anomaly:     344.2168 deg
Mean motion:   13.72745242 rev/day
Decay rate:        1.3e-07 rev/day^2
Epoch rev:           86640
Checksum:              273

Satellite: FO-20
Catalog number: 20480
Epoch time:      04280.23979829
Element set:     719
Inclination:       99.0344 deg
RA of node:       136.7153 deg
Eccentricity:    0.0540837
Arg of perigee:    95.2618 deg
Mean anomaly:     271.0403 deg
Mean motion:   12.83341913 rev/day
Decay rate:       -2.8e-07 rev/day^2
Epoch rev:           68692
Checksum:              314

Satellite: RS-12/13
Catalog number: 21089
Epoch time:      04280.90681343
Element set:     741
Inclination:       82.9180 deg
RA of node:        98.8622 deg
Eccentricity:    0.0030943
Arg of perigee:    65.2718 deg
Mean anomaly:     295.1659 deg
Mean motion:   13.74441167 rev/day
Decay rate:        2.5e-07 rev/day^2
Epoch rev:           68570
Checksum:              317

Satellite: RS-15
Catalog number: 23439
Epoch time:      04278.97246186
Element set:    0818
Inclination:      064.8170 deg
RA of node:       160.2900 deg
Eccentricity:    0.0156078
Arg of perigee:   001.5715 deg
Mean anomaly:     358.5670 deg
Mean motion:   11.27549878 rev/day
Decay rate:       -3.9e-07 rev/day^2
Epoch rev:           40261
Checksum:              321

Satellite: FO-29
Catalog number: 24278
Epoch time:      04281.21257794
Element set:     807
Inclination:       98.5818 deg
RA of node:       358.4913 deg
Eccentricity:    0.0351376
Arg of perigee:   111.5157 deg
Mean anomaly:     252.3819 deg
Mean motion:   13.52903700 rev/day
Decay rate:       -3.0e-08 rev/day^2
Epoch rev:           40198
Checksum:              317

Satellite: SO-33
Catalog number: 25509
Epoch time:      04280.61738129
Element set:     210
Inclination:       31.4291 deg
RA of node:        25.7471 deg
Eccentricity:    0.0355371
Arg of perigee:   109.9276 deg
Mean anomaly:     253.9988 deg
Mean motion:   14.27869536 rev/day
Decay rate:        5.6e-07 rev/day^2
Epoch rev:           31055
Checksum:              316

Satellite: AO-40
Catalog number: 26609
Epoch time:      04279.33167181
Element set:     443
Inclination:        9.6387 deg
RA of node:       340.2210 deg
Eccentricity:    0.7963961
Arg of perigee:   326.4169 deg
Mean anomaly:       2.7217 deg
Mean motion:    1.25582192 rev/day
Decay rate:      .00000000 rev/day^2
Epoch rev:            1805
Checksum:              278



Read previous mail | Read next mail


 18.06.2026 02:12:47lGo back Go up